Location: Eurasberg
(48.3353°N, 11.0839°E)
Time: 04:12:27
(UTC+00:00)

COSMO-SKYMED 1 - Visible Passes

Search period start: 21 April 2026 00:00
Search period end: 01 May 2026 00:00
Orbit: 576 x 577 km, 97.9° (Epoch: 20 April)

Date Brightness Start Highest point End Pass type
(mag) Time Alt. Az. Time Alt. Az. Time Alt. Az.
21 Apr 5.9 19:23:14 10° NNW 19:25:37 15° WNW 19:28:00 10° W visible
22 Apr 5.9 19:27:19 10° NNW 19:29:30 14° WNW 19:31:39 10° W visible
23 Apr 6.0 19:31:26 10° NNW 19:33:21 13° WNW 19:35:16 10° W visible
24 Apr 6.5 03:14:55 10° ENE 03:15:57 11° ENE 03:16:59 10° NE visible
24 Apr 6.1 19:35:35 10° NW 19:37:12 12° WNW 19:38:48 10° W visible
25 Apr 6.3 03:18:20 10° ENE 03:19:49 12° ENE 03:21:17 10° NE visible
25 Apr 6.2 19:39:50 10° NW 19:41:03 11° WNW 19:42:16 10° WNW visible
26 Apr 6.2 03:21:52 10° E 03:23:39 13° ENE 03:25:27 10° NNE visible
26 Apr 6.4 19:44:18 10° NW 19:44:54 10° NW 19:45:29 10° WNW visible
27 Apr 6.1 03:25:25 10° E 03:27:30 14° ENE 03:29:34 10° NNE visible
